www.pogodaiklimat.ru

Погода и климат >> Архив погоды >> Гондурас >> La Esperanza


ПОГОДА в La Esperanza

  • Прогноз погоды в La Esperanza
  • Монитор погоды в La Esperanza
  • Климат города

АРХИВ ПОГОДЫ в La Esperanza

Время (UTC), дата Ветер
(напр.,м/с)
 
Видим.   Явления Облачность Т
(С)
Тd
(С)
f
(%)
Тe
(С)
Тes
(С)
Комфортность P
(гПа)
Po
(гПа)
Тmin
(С)
Tmax
(С)
R
(мм)
R24
(мм)
S
(см)
15 11.10 С 2 20 км 5/4 720 м
[Cu hum Ci fib]
+19.2 +15.4 79 +21 +27 комфорт 1011.6 835.7
18 11.10 СВ 2 20 км 8/5 720 м
[Cu med, cong Ac trans Ci fib]
+20.0 +15.9 77 +23 +30 комфорт 1010.9 835.2 +13.5 +21.2
21 11.10 Ю 1 8000 м слабая морось {дождь} 9/4 660 м
[Cu hum Ac As Ci fib]
+18.0 +16.5 91 +19 +23 834.4 6
00 12.10 СВ 1 15 км осадки на расстоянии {дождь} 8/4 660 м
[Cu med, cong Ac As Ci fib]
+17.8 +16.0 89 +19 +19 1011.0 834.4 +13.1 +21.5 1
12 12.10 С 1 20 км 6/3 660 м
[Sc diur, vesp Ac trans Ci fib]
+15.2 +14.9 98 +16 +16 1011.6 835.2 -4.5 +21.5 11
15 12.10 ЮВ 2 20 км 5/0 720 м
[As trans Ci fib]
+18.6 +15.0 80 +20 +27 1012.0 835.2
18 12.10 СВ 2 20 км 9/8 720 м
[Cu med, cong Ci fib]
+21.0 +16.4 75 +25 +29 комфорт 1016.4 792.6 +14.5 +21.4
21 12.10 СВ 1 20 км 6/4 720 м
[Cu med, cong Ac As Ci fib]
+20.4 +16.3 77 +24 +29 комфорт 1008.5 833.8
00 13.10 Ю 1 20 км гроза без осадков ясно +18.0 +16.2 89 +19 +19 1010.4 1084.4 +14.5 +22.0
12 13.10 штиль 0 10 км 4/1 540 м
[Sc diur, vesp Ci fib]
+15.8 +15.2 96 +16 +16 1010.6 834.2 +14.6 +22.0
15 13.10 В 2 10 км 8/6 540 м
[Sc diur, vesp Ac trans]
+18.1 +16.0 88 +19 +21 1012.2 835.6
18 13.10 СВ 1 20 км 9/9 600 м
[Cu hum Ci fib]
+20.6 +15.9 74 +25 +27 комфорт 1011.1 835.1 +14.8 +20.6
21 13.10 СВ 2 10 км 8/5 660 м
[Cb cap Ac cuf Ci ing]
+20.4 +16.2 77 +24 +27 комфорт 1009.4 833.9
00 14.10 СВ 2 10 км 9/8 540 м
[Sc diur, vesp Ac trans Ci fib]
+17.6 +16.4 93 +18 +18 1010.9 834.5 +14.6 +21.6
12 14.10 СВ 1 8000 м 9/9 420 м
[Sc diur, vesp Ci fib]
+16.0 +15.6 97 +17 +17 1011.9 835.6 +15.5 +21.6
15 14.10 СВ 2 20 км 9/8 540 м
[Sc diur, vesp Ci fib]
+17.8 +15.7 88 +18 +20 1012.3 836.7
18 14.10 СВ 2 20 км 9/9 600 м
[Cu hum Ci fib]
+19.6 +16.9 84 +22 +24 комфорт 1012.4 836.2 +15.5 +19.6
21 14.10 СВ 2 20 км 8/4 660 м
[Cu med, cong Ac trans Cs]
+21.5 +16.4 73 +25 +28 комфорт 1009.8 834.7
00 15.10 СВ 2 10 км 8/5 540 м
[Cb cap Ac cuf Ci ing]
+17.6 +16.0 90 +18 +18 1011.7 835.1 +15.5 +22.0
12 15.10 СВ 2 8000 м 9/9 420 м
[Sc diur, vesp]
+16.6 +16.2 97 +17 +17 1012.2 835.6 +15.5 +22.0 2
18 15.10 СВ 2 20 км 4/4 660 м
[Cu hum Ci fib]
+22.2 +13.8 59 +25 +36 комфорт 1012.4 936.9 +15.5 +22.2
21 15.10 СВ 2 20 км 4/4 660 м
[Cu hum Ci fib]
+22.1 +14.7 63 +25 +30 комфорт 1009.9 834.9
00 16.10 СВ 1 20 км 4/3 600 м
[Cb cap Ac cuf Ci ing]
+18.2 +16.2 88 +20 +20 1011.9 835.3 +15.5 +23.2
12 16.10 СВ 4 10 км 9/9 600 м
[Sc diur, vesp Ci fib]
+16.7 +15.1 90 +16 +16 1012.1 835.5 +15.9 +23.2
15 16.10 СВ 8 15 км 9/6 600 м
[Sc diur, vesp Ci fib]
+18.0 +15.0 83 +17 +18 1013.7 836.9
18 16.10 СВ 7 20 км 9/6 660 м
[Cu hum Ci fib]
+20.3 +15.1 72 +22 +24 комфорт 1011.6 836.1 +15.9 +21.0
21 16.10 В 4 20 км 9/5 720 м
[Cu hum Cs]
+21.2 +15.6 70 +24 +27 комфорт 1009.1 834.0
00 17.10 СВ 2 20 км 8/4 660 м
[Cu hum Ci fib]
+18.4 +16.4 88 +20 +20 1010.0 834.2 +15.9 +22.3
12 17.10 СВ 5 6000 м осадки на расстоянии 9/9 540 м
[Sc diur, vesp Ci fib]
+17.0 +15.7 92 +16 +16 1011.3 835.3 +16.4 +22.3
15 17.10 В 5 15 км 6/6 600 м
[Sc diur, vesp Ci fib]
+29.0 +15.8 45 +32 +34 душно 1012.6 836.4
18 17.10 В 5 20 км 8/8 720 м
[Cu hum]
+21.6 +16.1 71 +25 +27 комфорт 1010.9 835.6 +16.4 +21.6
21 17.10 В 4 20 км 6/6 720 м
[Cu med, cong Ci fib]
+22.0 +16.8 72 +26 +28 душно 1008.8 834.3
00 18.10 6000 м ясно +1.9 1010.5 874.7 +16.4 +22.9

 

Местоположение метеостанции La Esperanza (Гондурас): широта 14.32 долгота -88.16 высота над уровнем моря 1674 м.

В архиве по умолчанию представлена погода в La Esperanza за последнюю неделю. Архивные данные за месяц целиком и за предыдущие месяцы, начиная с января 2011 года, Вы можете получить, выбрав интересующий диапазон дат из раскрывающегося списка и нажав кнопку "Ввод!".

Внимание! Время в таблицах - всемирное. Для получения местного времени необходимо прибавить поправку, которая в La Esperanza равна -6 ч.

Смотрите также архив погоды в соседних городах и на ближайших метеорологических станциях:

Погода в Santa Rosa De Copan (Гондурас) (84 км)
Погода в Tegucigalpa (Гондурас) (107 км)
Погода в Nueva Ocotepeque (Гондурас) (111 км)
Погода в La Mesa (Гондурас) (128 км)
Погода в Amapala (Гондурас) (129 км)
Погода в Yoro (Гондурас) (147 км)
Погода в Choluteca (Гондурас) (155 км)
Погода в Puerto Barrios (Гватемала) (163 км)
Погода в Tela (Гондурас) (172 км)
Погода в La Ceiba (Гондурас) (210 км)

Пояснения к столбцам:

Ветер - указаны скорость ветра в м/с - средняя за 10 мин, порывы в срок и между сроками (в фигурных скобках) и направление, откуда дует ветер: С - северный, СВ - северо-восточный, В - восточный, ЮВ - юго-восточный, Ю - южный, ЮЗ - юго-западный, З - западный, СЗ - северо-западный.
Видимость - горизонтальная дальность видимости в метрах или километрах. При видимости от 1 до 10 км при отсутствии осадков обычно наблюдается дымка, при ухудшении видимости до 1 км и менее - туман. В сухую погоду видимость может ухудшаться дымом, пылью или мглою.
Явления - указаны атмосферные явления, наблюдавшиеся в срок или в последний час перед сроком; фигурными скобками обозначены явления, наблюдавшиеся между сроками (за 1-3 часа до срока); квадратными скобками обозначены град или гололедные отложения с указанием их диаметра в мм.
Облачность - указаны через наклонную черту общая и нижняя облачность в баллах и высота нижней границы облаков в метрах; квадратными скобками обозначены формы облаков: Ci - перистые, Cs - перисто-слоистые, Cc - перисто-кучевые, Ac - высококучевые, As - высокослоистые, Sc - слоисто-кучевые, Ns - слоисто-дождевые, Cu - кучевые, Cb - кучево-дождевые. Подробнее классификацию облаков см. в Атласе облаков (PDF).
T - Температура воздуха - температура, измеренная на высоте 2 м над землей.
Td - Температура точки росы - температура, при понижении до которой содержащийся в воздухе водяной пар достигнет насыщения.
f - Относительная влажность воздуха - влажноcть воздуха, измеренная на высоте 2 м над землей.
Te - Эффективная температура - температура, которую ощущает одетый по сезону человек в тени. Характеристика душности погоды. При расчете учитывается влияние влажности воздуха и скорости ветра на теплоощущения человека.
Tes - Эффективная температура на солнце - температура, которую ощущает человек, с поправкой на солнечный нагрев. Характеристика знойности погоды. Зависит от высоты солнца над горизонтом, облачности и скорости ветра. Ночью, в пасмурную погоду, а также при ветре 12 м/с и более поправка равна нулю.
P - Атмосферное давление - приведенное к уровню моря атмосферное давление.
Po - Атмосферное давление - измеренное на уровне метеостанции атмосферное давление.
Tmin - Минимальная температура - минимум температуры воздуха на высоте 2 м над землей.
Tmax - Максимальная температура - максимум температуры воздуха на высоте 2 м над землей.
R - Количество осадков - Количество выпавших осадков за период времени, мм. При наведении курсора мыши на число - период времени, за который выпало указанное количество осадков.
R24 - Количество осадков - Количество выпавших осадков за 24 часа, мм.
S - Снежный покров - Высота снежного покрова, см. При наведении курсора мыши на число - состояние снежного покрова и степень покрытия местности в баллах.